SCP
0 0 0 0 0 0 0 0 0 0 0 0 0 0 0 0 0 0 0 0 0 0 0 0 0 0 0 0 0 0 0 0 0 0 0 0 0 0 0 0 0 0 0 0
0 0 0 0 0 0 0 0 0 0 0 0 0 0 0 0 0 0 0 0 0 0 0 0 0 0 0 0 0 0 0 0 0 0 0 0 0 0 0 0 0 0 0 0
0 0 0 0 0 0 0 0 0 0 0 0 0 0 0 0 0 0 0 0 0 0 0 0 0 0 0 0 0 0 0 0 0 0 0 0 0 0 0 0 0 0 0 0
0 0 0 0 0 0 0 0 0 0 0 0 0 0 0 0 0 0 0 0 0 0 0 0 0 0 0 0 0 0 0 0 0 0 0 0 0 0 0 0 0 0 0 0
0 0 0 0 0 0 0 0 0 0 0 0 0 0 0 0 0 0 0 0 0 0 0 0 0 0 0 0 0 0 0 0 0 0 0 0 0 0 0 0 0 0 0 0
0 0 0 0 0 0 0 0 0 0 0 0 0 0 0 0 0 0 0 0 0 0 0 0 0 0 0 0 0 0 0 0 0 0 0 0 0 0 0 0 0 0 0 0
0 0 0 0 0 0 0 0 0 0 0 0 0 0 0 0 0 0 0 0 0 0 0 0 0 0 0 0 0 0 0 0 0 0 0 0 0 0 0 0 0 0 0 0
0 0 0 0 0 0 0 0 0 0 0 0 0 0 0 0 0 0 0 0 0 0 0 0 0 0 0 0 0 0 0 0 0 0 0 0 0 0 0 0 0 0 0 0
0 0 0 0 0 0 0 0 0 0 0 0 0 0 0 0 0 0 0 0 0 0 0 0 0 0 0 0 0 0 0 0 0 0 0 0 0 0 0 0 0 0 0 0
0 0 0 0 0 0 0 0 0 0 0 0 0 0 0 0 0 0 0 0 0 0 0 0 0 0 0 0 0 0 0 0 0 0 0 0 0 0 0 0 0 0 0 0
0 0 0 0 0 0 0 0 0 0 0 0 0 0 0 0 0 0 0 0 0 0 0 0 0 0 0 0 0 0 0 0 0 0 0 0 0 0 0 0 0 0 0 0
0 0 0 0 0 0 0 0 0 0 0 0 0 0 0 0 0 0 0 0 0 0 0 0 0 0 0 0 0 0 0 0 0 0 0 0 0 0 0 0 0 0 0 0
0 0 0 0 0 0 0 0 0 0 0 0 0 0 0 0 0 0 0 0 0 0 0 0 0 0 0 0 0 0 0 0 0 0 0 0 0 0 0 0 0 0 0 0
0 0 0 0 0 0 0 0 0 0 0 0 0 0 0 0 0 0 0 0 0 0 0 0 0 0 0 0 0 0 0 0 0 0 0 0 0 0 0 0 0 0 0 0
0 0 0 0 0 0 0 0 0 0 0 0 0 0 0 0 0 0 0 0 0 0 0 0 0 0 0 0 0 0 0 0 0 0 0 0 0 0 0 0 0 0 0 0
0 0 0 0 0 0 0 0 0 0 0 0 0 0 0 0 0 0 0 0 0 0 0 0 0 0 0 0 0 0 0 0 0 0 0 0 0 0 0 0 0 0 0 0
0 0 0 0 0 0 0 0 0 0 0 0 0 0 0 0 0 0 0 0 0 0 0 0 0 0 0 0 0 0 0 0 0 0 0 0 0 0 0 0 0 0 0 0
0 0 0 0 0 0 0 0 0 0 0 0 0 0 0 0 0 0 0 0 0 0 0 0 0 0 0 0 0 0 0 0 0 0 0 0 0 0 0 0 0 0 0 0
0 0 0 0 0 0 0 0 0 0 0 0 0 0 0 0 0 0 0 0 0 0 0 0 0 0 0 0 0 0 0 0 0 0 0 0 0 0 0 0 0 0 0 0
0 0 0 0 0 0 0 0 0 0 0 0 0 0 0 0 0 0 0 0 0 0 0 0 0 0 0 0 0 0 0 0 0 0 0 0 0 0 0 0 0 0 0 0
0 0 0 0 0 0 0 0 0 0 0 0 0 0 0 0 0 0 0 0 0 0 0 0 0 0 0 0 0 0 0 0 0 0 0 0 0 0 0 0 0 0 0 0
0 0 0 0 0 0 0 0 0 0 0 0 0 0 0 0 0 0 0 0 0 0 0 0 0 0 0 0 0 0 0 0 0 0 0 0 0 0 0 0 0 0 0 0
0 0 0 0 0 0 0 0 0 0 0 0 0 0 0 0 0 0 0 0 0 0 0 0 0 0 0 0 0 0 0 0 0 0 0 0 0 0 0 0 0 0 0 0
0 0 0 0 0 0 0 -0 -0 0 0 0 0 0 0 0 0 0 0 0 0 0 0 0 0 0 0 0 0 0 0 0 0 0 0 0 0 0 0 0 0 0 0 0
0 0 0 0 0 0 0 0 0 0 -0 -0 0 0 0 0 0 0 0 0 0 0 0 0 0 0 0 0 0 0 0 0 0 0 0 0 0 0 0 0 0 0 0 0
0 0 0 -0 -0 -0 0 0 0 0 0 0 0 0 0 0 0 0 0 0 0 0 0 0 0 0 0 0 0 0 0 0 0 0 0 0 0 0 0 0 0 0 0 0
Wind_Speed_500mb
3 10 20 34 27 4 5 8 15 6 5 6 23 29 44 27 31 35 28 19 18 22 27 36 40 57 54 53 50 47 43 37 30 27 27 27 25 21 23 30 37 42 46 47
6 23 26 6 14 14 14 19 16 8 5 6 21 34 43 33 31 22 17 16 16 17 23 42 47 49 52 54 52 47 39 32 28 27 27 27 27 28 31 35 39 42 43 44
29 5 6 17 13 19 20 24 13 10 3 5 14 30 24 8 13 10 10 14 16 17 26 47 48 55 55 55 50 43 36 32 30 27 25 24 25 27 31 34 35 35 38 42
18 7 13 15 15 23 23 19 14 10 8 10 3 13 16 12 15 12 11 12 15 21 26 43 51 57 57 55 48 41 36 31 28 24 20 18 21 26 28 29 31 35 38 41
8 13 18 23 13 23 3 8 12 5 6 6 11 9 9 6 19 21 16 14 20 27 35 47 54 60 58 52 45 38 33 29 23 18 16 21 25 22 22 26 29 31 35 38
8 0 6 2 7 2 25 16 11 7 4 12 16 17 31 18 19 22 19 19 25 33 39 49 58 59 53 47 41 35 29 23 19 19 20 20 15 17 21 25 31 36 40 44
9 17 8 8 12 10 10 17 6 8 9 17 7 12 35 5 10 21 29 32 32 37 42 53 57 55 51 44 36 29 23 20 18 18 13 11 12 17 24 28 31 36 40 46
13 11 24 20 12 16 28 18 12 20 13 8 3 17 11 5 7 15 32 36 36 38 41 50 54 50 41 33 28 25 21 19 16 11 10 11 15 19 23 27 32 38 44 49
11 7 3 5 4 8 15 20 3 9 3 5 10 12 21 12 10 19 34 39 41 39 44 51 48 41 34 28 26 23 19 16 13 11 10 11 14 17 22 30 38 43 46 49
2 7 2 5 4 4 9 10 9 6 12 16 12 10 14 21 25 27 31 45 45 41 46 48 45 38 32 28 24 22 20 17 13 10 9 10 15 21 26 31 36 40 44 48
19 16 7 8 19 23 9 10 10 5 7 8 6 9 4 16 28 36 36 52 51 47 51 49 42 36 30 27 26 23 20 16 11 6 8 12 15 20 25 29 35 40 44 46
10 3 12 14 2 3 7 18 15 10 12 9 3 11 3 7 22 34 38 42 45 51 48 44 37 34 31 29 26 22 18 13 8 5 9 13 16 20 24 28 34 38 42 42
2 7 8 6 4 3 14 28 25 24 6 23 17 14 9 2 21 30 37 45 54 50 44 40 37 36 35 33 29 23 18 12 8 10 11 13 17 19 23 28 33 39 41 42
5 7 13 24 10 7 11 18 31 28 13 18 25 21 3 10 27 28 31 39 43 45 41 40 40 39 38 34 30 24 20 17 14 12 11 12 14 17 22 28 33 37 41 45
9 12 10 11 10 6 6 10 28 38 47 20 33 40 26 19 33 42 42 44 42 43 46 48 46 45 43 38 33 30 27 21 16 12 10 11 13 17 21 27 32 37 41 46
5 18 5 13 7 15 12 19 24 39 41 42 38 34 9 6 27 25 41 52 55 56 57 53 47 46 50 43 39 35 28 22 16 9 8 11 13 17 21 26 31 35 39 46
8 7 8 35 11 10 14 34 31 25 22 37 32 34 20 14 20 39 52 62 71 68 57 54 55 50 55 47 41 35 28 24 15 7 6 11 14 17 22 27 32 36 40 45
21 19 11 8 3 21 22 16 35 43 40 35 35 32 23 29 43 52 64 80 85 85 72 57 50 56 55 50 44 37 31 23 13 4 6 11 17 20 24 28 32 36 40 44
35 24 14 12 20 15 19 9 11 19 34 26 36 35 39 23 16 35 52 60 64 65 58 49 44 52 60 55 47 39 33 23 15 7 6 12 19 24 27 29 31 34 38 41
14 27 22 19 27 17 28 16 17 11 23 19 31 30 26 24 16 24 26 53 72 72 65 57 57 53 66 59 49 41 34 27 18 11 13 18 23 27 30 32 33 33 36 40
12 10 26 26 25 22 26 3 15 16 16 13 26 35 24 18 32 27 20 24 29 43 56 58 56 70 66 59 50 43 36 27 19 17 21 23 26 29 32 34 35 35 36 39
21 19 24 24 26 32 16 3 26 28 21 33 31 27 32 39 42 39 31 28 31 36 47 49 62 62 62 55 49 43 36 28 24 25 29 32 31 32 37 39 39 39 39 40
10 11 12 20 20 14 13 28 9 21 23 25 27 29 34 36 40 40 37 35 38 41 46 55 61 62 54 51 47 39 36 31 32 35 38 41 41 37 41 44 45 45 42 42
18 26 12 17 16 40 71 73 44 25 24 34 33 32 33 44 51 39 35 37 39 46 51 58 58 51 48 45 44 42 40 41 45 49 50 49 48 45 46 50 51 49 46 44
24 14 23 28 42 49 61 52 29 22 17 17 33 47 46 56 59 44 50 49 48 51 56 55 51 48 45 43 42 41 41 44 46 47 46 52 52 52 54 54 55 53 47 44
38 36 26 30 50 41 60 55 60 38 32 30 26 36 50 58 56 43 60 53 52 52 50 46 43 43 41 40 41 39 37 39 41 42 44 47 51 52 53 56 56 50 48 45
Wind_Direction_500mb
132 208 212 216 214 253 148 211 236 215 134 259 245 263 273 264 265 271 272 260 258 254 232 208 205 195 195 195 194 194 196 199 206 207 200 199 207 227 255 275 284 290 295 297
167 236 236 93 203 206 227 248 245 269 159 247 282 272 275 272 259 254 242 242 244 235 206 188 186 181 184 185 184 185 188 193 196 198 203 214 232 250 267 281 290 296 299 300
223 198 151 192 177 196 225 227 226 251 155 236 292 273 243 210 210 218 230 236 229 207 187 180 174 176 175 175 176 180 182 187 192 198 210 228 248 268 281 287 292 296 300 304
243 188 181 183 212 202 241 213 213 183 198 249 292 289 263 217 217 220 210 211 196 178 167 171 169 168 170 170 171 175 181 185 190 202 220 246 270 284 290 296 304 309 309 308
203 175 191 218 224 187 232 135 157 147 184 338 179 261 230 183 231 218 198 187 174 165 161 158 159 161 164 166 171 173 176 183 197 214 246 277 290 290 297 302 306 310 312 313
270 31 216 180 85 204 140 107 81 89 128 248 175 212 261 210 224 187 174 175 166 160 155 154 157 160 163 164 167 172 181 194 217 243 265 275 276 291 303 310 314 316 318 318
208 218 162 165 126 131 196 163 166 216 196 247 127 203 257 224 193 184 171 169 164 161 158 159 160 160 161 164 171 182 197 216 236 261 261 270 287 302 310 315 319 323 327 328
205 227 181 175 223 190 196 207 214 238 222 243 97 229 247 254 154 162 169 163 160 162 165 164 162 163 166 173 184 196 210 230 244 233 252 278 299 311 319 323 330 335 333 330
210 237 141 198 175 169 180 218 108 100 78 270 203 252 261 193 176 176 169 166 167 167 166 167 167 170 176 187 192 205 218 209 209 227 259 284 301 316 331 341 340 335 331 327
336 254 170 142 187 214 236 142 175 206 219 232 213 266 247 199 191 178 175 176 171 167 168 171 175 182 187 194 203 201 193 198 211 230 261 298 325 339 340 336 331 330 329 328
205 218 128 134 210 194 173 196 228 257 231 253 265 230 189 231 188 181 179 178 175 176 179 182 187 192 197 201 191 189 193 198 208 247 298 322 329 330 328 328 330 331 330 330
222 255 242 211 41 313 226 222 189 217 216 243 352 267 115 294 183 174 176 177 181 187 188 191 196 199 197 189 193 195 194 199 217 280 308 309 309 313 321 329 332 333 332 329
102 227 230 216 189 197 208 223 235 225 342 222 211 251 14 129 172 176 172 182 186 188 191 197 197 194 194 196 197 195 196 204 235 264 276 289 299 310 324 332 337 339 337 336
73 265 246 250 293 125 202 208 206 193 203 222 231 238 203 169 182 184 189 188 183 186 192 195 195 200 202 202 198 198 205 216 233 246 259 282 301 317 330 339 341 341 342 343
195 248 251 260 253 249 235 213 204 207 224 220 246 242 255 210 197 201 195 186 188 193 198 199 202 208 207 203 202 206 208 212 218 231 260 286 309 324 333 339 340 342 345 344
323 253 182 268 233 240 240 233 220 223 236 241 259 262 266 302 211 202 208 198 200 202 203 203 208 217 212 208 209 206 205 208 214 222 272 299 316 325 334 337 339 340 343 346
266 283 205 248 174 172 244 231 224 221 218 224 236 250 231 221 211 216 218 215 212 209 208 213 220 225 215 211 210 203 203 206 209 230 283 310 321 325 330 335 337 338 344 344
254 265 286 300 209 216 248 220 224 229 234 221 253 254 230 232 230 232 236 231 227 228 228 241 240 230 216 210 205 200 202 202 198 209 300 325 333 328 328 329 334 337 340 342
219 233 254 264 249 301 291 180 176 211 245 218 231 249 249 232 252 254 238 240 244 238 238 236 240 228 207 206 198 197 196 192 193 198 283 319 325 322 323 325 329 333 334 339
229 237 228 229 250 248 246 253 200 165 258 212 221 238 240 173 223 250 238 239 243 247 246 246 232 223 200 197 193 194 189 190 197 222 280 305 313 315 317 320 323 326 329 333
262 233 241 240 243 255 269 209 149 191 265 223 236 247 207 206 232 270 242 238 238 233 228 225 221 196 194 189 188 190 192 200 220 253 278 293 307 317 317 317 318 319 322 326
254 254 245 242 247 259 225 165 228 250 256 260 252 230 215 238 245 245 243 246 240 226 210 203 191 190 187 188 189 194 205 218 240 260 273 283 293 306 312 313 315 315 315 318
253 268 300 267 261 290 302 263 264 269 268 277 266 244 243 245 257 256 247 241 230 212 197 187 184 182 187 189 196 206 222 233 254 267 275 280 284 291 303 306 310 309 309 311
258 254 265 310 292 306 306 291 270 247 271 304 298 296 295 276 274 252 229 211 194 184 181 177 178 186 192 200 212 225 244 252 256 266 274 275 280 287 291 295 298 301 303 303
253 260 263 266 278 287 289 284 297 296 301 297 263 289 285 278 276 240 205 193 190 185 183 187 189 190 197 210 222 234 246 257 264 266 268 269 275 283 286 287 291 294 295 295
246 250 250 255 267 266 268 268 300 307 303 309 303 292 281 264 263 231 204 195 191 185 183 187 195 206 215 230 240 246 251 251 253 257 261 269 278 282 285 289 290 290 294 293
Wind_Speed_850mb
3 10 20 34 27 4 5 8 15 6 5 6 23 29 44 27 31 35 28 19 18 22 27 36 40 57 54 53 50 47 43 37 30 27 27 27 25 21 23 30 37 42 46 47
6 23 26 6 14 14 14 19 16 8 5 6 21 34 43 33 31 22 17 16 16 17 23 42 47 49 52 54 52 47 39 32 28 27 27 27 27 28 31 35 39 42 43 44
29 5 6 17 13 19 20 24 13 10 3 5 14 30 24 8 13 10 10 14 16 17 26 47 48 55 55 55 50 43 36 32 30 27 25 24 25 27 31 34 35 35 38 42
18 7 13 15 15 23 23 19 14 10 8 10 3 13 16 12 15 12 11 12 15 21 26 43 51 57 57 55 48 41 36 31 28 24 20 18 21 26 28 29 31 35 38 41
8 13 18 23 13 23 3 8 12 5 6 6 11 9 9 6 19 21 16 14 20 27 35 47 54 60 58 52 45 38 33 29 23 18 16 21 25 22 22 26 29 31 35 38
8 0 6 2 7 2 25 16 11 7 4 12 16 17 31 18 19 22 19 19 25 33 39 49 58 59 53 47 41 35 29 23 19 19 20 20 15 17 21 25 31 36 40 44
9 17 8 8 12 10 10 17 6 8 9 17 7 12 35 5 10 21 29 32 32 37 42 53 57 55 51 44 36 29 23 20 18 18 13 11 12 17 24 28 31 36 40 46
13 11 24 20 12 16 28 18 12 20 13 8 3 17 11 5 7 15 32 36 36 38 41 50 54 50 41 33 28 25 21 19 16 11 10 11 15 19 23 27 32 38 44 49
11 7 3 5 4 8 15 20 3 9 3 5 10 12 21 12 10 19 34 39 41 39 44 51 48 41 34 28 26 23 19 16 13 11 10 11 14 17 22 30 38 43 46 49
2 7 2 5 4 4 9 10 9 6 12 16 12 10 14 21 25 27 31 45 45 41 46 48 45 38 32 28 24 22 20 17 13 10 9 10 15 21 26 31 36 40 44 48
19 16 7 8 19 23 9 10 10 5 7 8 6 9 4 16 28 36 36 52 51 47 51 49 42 36 30 27 26 23 20 16 11 6 8 12 15 20 25 29 35 40 44 46
10 3 12 14 2 3 7 18 15 10 12 9 3 11 3 7 22 34 38 42 45 51 48 44 37 34 31 29 26 22 18 13 8 5 9 13 16 20 24 28 34 38 42 42
2 7 8 6 4 3 14 28 25 24 6 23 17 14 9 2 21 30 37 45 54 50 44 40 37 36 35 33 29 23 18 12 8 10 11 13 17 19 23 28 33 39 41 42
5 7 13 24 10 7 11 18 31 28 13 18 25 21 3 10 27 28 31 39 43 45 41 40 40 39 38 34 30 24 20 17 14 12 11 12 14 17 22 28 33 37 41 45
9 12 10 11 10 6 6 10 28 38 47 20 33 40 26 19 33 42 42 44 42 43 46 48 46 45 43 38 33 30 27 21 16 12 10 11 13 17 21 27 32 37 41 46
5 18 5 13 7 15 12 19 24 39 41 42 38 34 9 6 27 25 41 52 55 56 57 53 47 46 50 43 39 35 28 22 16 9 8 11 13 17 21 26 31 35 39 46
8 7 8 35 11 10 14 34 31 25 22 37 32 34 20 14 20 39 52 62 71 68 57 54 55 50 55 47 41 35 28 24 15 7 6 11 14 17 22 27 32 36 40 45
21 19 11 8 3 21 22 16 35 43 40 35 35 32 23 29 43 52 64 80 85 85 72 57 50 56 55 50 44 37 31 23 13 4 6 11 17 20 24 28 32 36 40 44
35 24 14 12 20 15 19 9 11 19 34 26 36 35 39 23 16 35 52 60 64 65 58 49 44 52 60 55 47 39 33 23 15 7 6 12 19 24 27 29 31 34 38 41
14 27 22 19 27 17 28 16 17 11 23 19 31 30 26 24 16 24 26 53 72 72 65 57 57 53 66 59 49 41 34 27 18 11 13 18 23 27 30 32 33 33 36 40
12 10 26 26 25 22 26 3 15 16 16 13 26 35 24 18 32 27 20 24 29 43 56 58 56 70 66 59 50 43 36 27 19 17 21 23 26 29 32 34 35 35 36 39
21 19 24 24 26 32 16 3 26 28 21 33 31 27 32 39 42 39 31 28 31 36 47 49 62 62 62 55 49 43 36 28 24 25 29 32 31 32 37 39 39 39 39 40
10 11 12 20 20 14 13 28 9 21 23 25 27 29 34 36 40 40 37 35 38 41 46 55 61 62 54 51 47 39 36 31 32 35 38 41 41 37 41 44 45 45 42 42
18 26 12 17 16 40 71 73 44 25 24 34 33 32 33 44 51 39 35 37 39 46 51 58 58 51 48 45 44 42 40 41 45 49 50 49 48 45 46 50 51 49 46 44
24 14 23 28 42 49 61 52 29 22 17 17 33 47 46 56 59 44 50 49 48 51 56 55 51 48 45 43 42 41 41 44 46 47 46 52 52 52 54 54 55 53 47 44
38 36 26 30 50 41 60 55 60 38 32 30 26 36 50 58 56 43 60 53 52 52 50 46 43 43 41 40 41 39 37 39 41 42 44 47 51 52 53 56 56 50 48 45
Wind_Direction_850mb
132 208 212 216 214 253 148 211 236 215 134 259 245 263 273 264 265 271 272 260 258 254 232 208 205 195 195 195 194 194 196 199 206 207 200 199 207 227 255 275 284 290 295 297
167 236 236 93 203 206 227 248 245 269 159 247 282 272 275 272 259 254 242 242 244 235 206 188 186 181 184 185 184 185 188 193 196 198 203 214 232 250 267 281 290 296 299 300
223 198 151 192 177 196 225 227 226 251 155 236 292 273 243 210 210 218 230 236 229 207 187 180 174 176 175 175 176 180 182 187 192 198 210 228 248 268 281 287 292 296 300 304
243 188 181 183 212 202 241 213 213 183 198 249 292 289 263 217 217 220 210 211 196 178 167 171 169 168 170 170 171 175 181 185 190 202 220 246 270 284 290 296 304 309 309 308
203 175 191 218 224 187 232 135 157 147 184 338 179 261 230 183 231 218 198 187 174 165 161 158 159 161 164 166 171 173 176 183 197 214 246 277 290 290 297 302 306 310 312 313
270 31 216 180 85 204 140 107 81 89 128 248 175 212 261 210 224 187 174 175 166 160 155 154 157 160 163 164 167 172 181 194 217 243 265 275 276 291 303 310 314 316 318 318
208 218 162 165 126 131 196 163 166 216 196 247 127 203 257 224 193 184 171 169 164 161 158 159 160 160 161 164 171 182 197 216 236 261 261 270 287 302 310 315 319 323 327 328
205 227 181 175 223 190 196 207 214 238 222 243 97 229 247 254 154 162 169 163 160 162 165 164 162 163 166 173 184 196 210 230 244 233 252 278 299 311 319 323 330 335 333 330
210 237 141 198 175 169 180 218 108 100 78 270 203 252 261 193 176 176 169 166 167 167 166 167 167 170 176 187 192 205 218 209 209 227 259 284 301 316 331 341 340 335 331 327
336 254 170 142 187 214 236 142 175 206 219 232 213 266 247 199 191 178 175 176 171 167 168 171 175 182 187 194 203 201 193 198 211 230 261 298 325 339 340 336 331 330 329 328
205 218 128 134 210 194 173 196 228 257 231 253 265 230 189 231 188 181 179 178 175 176 179 182 187 192 197 201 191 189 193 198 208 247 298 322 329 330 328 328 330 331 330 330
222 255 242 211 41 313 226 222 189 217 216 243 352 267 115 294 183 174 176 177 181 187 188 191 196 199 197 189 193 195 194 199 217 280 308 309 309 313 321 329 332 333 332 329
102 227 230 216 189 197 208 223 235 225 342 222 211 251 14 129 172 176 172 182 186 188 191 197 197 194 194 196 197 195 196 204 235 264 276 289 299 310 324 332 337 339 337 336
73 265 246 250 293 125 202 208 206 193 203 222 231 238 203 169 182 184 189 188 183 186 192 195 195 200 202 202 198 198 205 216 233 246 259 282 301 317 330 339 341 341 342 343
195 248 251 260 253 249 235 213 204 207 224 220 246 242 255 210 197 201 195 186 188 193 198 199 202 208 207 203 202 206 208 212 218 231 260 286 309 324 333 339 340 342 345 344
323 253 182 268 233 240 240 233 220 223 236 241 259 262 266 302 211 202 208 198 200 202 203 203 208 217 212 208 209 206 205 208 214 222 272 299 316 325 334 337 339 340 343 346
266 283 205 248 174 172 244 231 224 221 218 224 236 250 231 221 211 216 218 215 212 209 208 213 220 225 215 211 210 203 203 206 209 230 283 310 321 325 330 335 337 338 344 344
254 265 286 300 209 216 248 220 224 229 234 221 253 254 230 232 230 232 236 231 227 228 228 241 240 230 216 210 205 200 202 202 198 209 300 325 333 328 328 329 334 337 340 342
219 233 254 264 249 301 291 180 176 211 245 218 231 249 249 232 252 254 238 240 244 238 238 236 240 228 207 206 198 197 196 192 193 198 283 319 325 322 323 325 329 333 334 339
229 237 228 229 250 248 246 253 200 165 258 212 221 238 240 173 223 250 238 239 243 247 246 246 232 223 200 197 193 194 189 190 197 222 280 305 313 315 317 320 323 326 329 333
262 233 241 240 243 255 269 209 149 191 265 223 236 247 207 206 232 270 242 238 238 233 228 225 221 196 194 189 188 190 192 200 220 253 278 293 307 317 317 317 318 319 322 326
254 254 245 242 247 259 225 165 228 250 256 260 252 230 215 238 245 245 243 246 240 226 210 203 191 190 187 188 189 194 205 218 240 260 273 283 293 306 312 313 315 315 315 318
253 268 300 267 261 290 302 263 264 269 268 277 266 244 243 245 257 256 247 241 230 212 197 187 184 182 187 189 196 206 222 233 254 267 275 280 284 291 303 306 310 309 309 311
258 254 265 310 292 306 306 291 270 247 271 304 298 296 295 276 274 252 229 211 194 184 181 177 178 186 192 200 212 225 244 252 256 266 274 275 280 287 291 295 298 301 303 303
253 260 263 266 278 287 289 284 297 296 301 297 263 289 285 278 276 240 205 193 190 185 183 187 189 190 197 210 222 234 246 257 264 266 268 269 275 283 286 287 291 294 295 295
246 250 250 255 267 266 268 268 300 307 303 309 303 292 281 264 263 231 204 195 191 185 183 187 195 206 215 230 240 246 251 251 253 257 261 269 278 282 285 289 290 290 294 293